Location: Unnamed
(45.3580°N, 90.2245°W)
Time: 16:22:42
(UTC-06:00)

Tiangong - Visible Passes

Search period start: 17 January 2026 00:00
Search period end: 27 January 2026 00:00
Orbit: 378 x 394 km, 41.5° (Epoch: 17 January)

Date Brightness Start Highest point End Pass type
(mag) Time Alt. Az. Time Alt. Az. Time Alt. Az.
17 Jan 0.7 06:19:06 10° SSW 06:21:07 16° SSE 06:23:09 10° ESE visible
18 Jan 1.0 05:21:37 10° SSE 05:22:06 10° SSE 05:22:35 10° SE visible
18 Jan -0.3 06:55:30 10° SW 06:58:21 29° SSE 07:01:12 10° ESE visible
19 Jan 0.1 05:57:05 13° SSW 05:59:11 22° SSE 06:01:46 10° ESE visible
20 Jan 0.8 05:00:52 15° SE 05:00:52 15° SE 05:02:05 10° ESE visible
20 Jan -0.8 06:33:26 10° WSW 06:36:24 36° S 06:39:24 10° ESE visible
21 Jan -0.7 05:36:44 28° S 05:37:09 30° SSE 05:39:59 10° ESE visible
22 Jan 1.4 04:40:15 11° ESE 04:40:15 11° ESE 04:40:28 10° ESE visible
22 Jan -1.1 06:12:28 19° WSW 06:14:21 40° S 06:17:23 10° ESE visible
23 Jan -0.3 05:15:53 29° SE 05:15:53 29° SE 05:17:58 10° ESE visible
23 Jan -0.9 06:48:36 10° WSW 06:51:33 35° S 06:54:31 10° ESE visible
24 Jan -1.2 05:51:27 34° SW 05:52:10 40° S 05:55:10 10° ESE visible
25 Jan 0.7 04:54:44 18° ESE 04:54:44 18° ESE 04:55:45 10° ESE visible
25 Jan -0.7 06:26:57 13° WSW 06:29:15 29° SSW 06:32:03 10° SE visible
26 Jan -0.9 05:30:13 33° S 05:30:13 33° S 05:32:45 10° ESE visible
